TimeMST,TemperatureF,Dew PointF,Humidity,Sea Level PressureIn,VisibilityMPH,Wind Direction,Wind SpeedMPH,Gust SpeedMPH,PrecipitationIn,Events,Conditions,WindDirDegrees,DateUTC
12:53 AM,43.0,28.9,58,29.78,10.0,WSW,9.2,-,N/A,,Clear,240,2012-11-18 07:53:00
1:53 AM,41.0,28.0,60,29.75,10.0,WSW,9.2,-,N/A,,Clear,250,2012-11-18 08:53:00
2:53 AM,41.0,28.9,62,29.74,10.0,West,9.2,-,N/A,,Clear,260,2012-11-18 09:53:00
3:53 AM,41.0,28.9,62,29.72,10.0,WSW,5.8,-,N/A,,Clear,240,2012-11-18 10:53:00
4:53 AM,39.0,28.0,65,29.73,10.0,SW,6.9,-,N/A,,Clear,220,2012-11-18 11:53:00
5:53 AM,39.9,28.9,65,29.72,10.0,SW,9.2,-,N/A,,Clear,220,2012-11-18 12:53:00
6:53 AM,41.0,30.0,65,29.71,10.0,SW,8.1,-,N/A,,Clear,220,2012-11-18 13:53:00
7:53 AM,45.0,32.0,60,29.71,10.0,WSW,13.8,-,N/A,,Partly Cloudy,240,2012-11-18 14:53:00
8:53 AM,48.9,32.0,52,29.72,10.0,WSW,16.1,-,N/A,,Partly Cloudy,250,2012-11-18 15:53:00
9:53 AM,50.0,32.0,50,29.74,10.0,WSW,18.4,-,N/A,,Partly Cloudy,250,2012-11-18 16:53:00
10:53 AM,52.0,33.1,49,29.78,10.0,WSW,15.0,-,N/A,,Partly Cloudy,240,2012-11-18 17:53:00
11:53 AM,55.9,34.0,44,29.77,10.0,SW,12.7,-,N/A,,Partly Cloudy,230,2012-11-18 18:53:00
12:16 PM,59.0,33.8,39,29.79,10.0,WNW,15.0,-,N/A,,Partly Cloudy,290,2012-11-18 19:16:00
12:32 PM,57.2,33.8,41,29.79,10.0,North,9.2,-,N/A,,Partly Cloudy,360,2012-11-18 19:32:00
12:53 PM,57.0,33.1,40,29.79,10.0,NW,5.8,-,N/A,,Partly Cloudy,310,2012-11-18 19:53:00
1:53 PM,55.9,34.0,44,29.82,10.0,NNW,9.2,-,N/A,,Partly Cloudy,340,2012-11-18 20:53:00
2:53 PM,54.0,30.0,40,29.85,10.0,NW,17.3,-,N/A,,Mostly Cloudy,320,2012-11-18 21:53:00
3:53 PM,51.1,26.1,38,29.88,10.0,NNW,12.7,20.7,N/A,,Scattered Clouds,340,2012-11-18 22:53:00
4:53 PM,46.9,25.0,42,29.93,10.0,North,6.9,-,N/A,,Scattered Clouds,350,2012-11-18 23:53:00
5:53 PM,44.1,25.0,47,29.97,10.0,NNW,8.1,-,N/A,,Mostly Cloudy,330,2012-11-19 00:53:00
6:53 PM,44.1,25.0,47,29.99,10.0,Calm,Calm,-,N/A,,Mostly Cloudy,0,2012-11-19 01:53:00
7:53 PM,44.1,24.1,45,29.99,10.0,SSW,4.6,-,N/A,,Overcast,210,2012-11-19 02:53:00
8:41 PM,42.8,24.8,49,30.00,10.0,West,8.1,-,0.00,,Small Hail,260,2012-11-19 03:41:00
8:53 PM,42.1,27.0,55,30.02,10.0,West,3.5,-,0.00,Rain,Light Rain,260,2012-11-19 03:53:00
8:56 PM,42.8,26.6,53,30.00,10.0,West,3.5,-,0.00,Rain,Light Rain,280,2012-11-19 03:56:00
9:53 PM,39.9,28.0,63,30.03,10.0,Calm,Calm,-,0.00,,Mostly Cloudy,0,2012-11-19 04:53:00
10:53 PM,41.0,21.9,47,30.04,10.0,WSW,3.5,-,N/A,,Scattered Clouds,240,2012-11-19 05:53:00
11:53 PM,37.0,24.1,59,30.04,10.0,Calm,Calm,-,0.00,,Scattered Clouds,0,2012-11-19 06:53:00